Time,TemperatureF,DewpointF,PressureIn,WindDirection,WindDirectionDegrees,WindSpeedMPH,WindSpeedGustMPH,Humidity,HourlyPrecipIn,Conditions,Clouds,dailyrainin,SoftwareType,DateUTC
2015-08-29 00:04:00,67.0,59.0,-100.00,SSE,160,2.0,6.0,73,-99.99,,,-99.99,,2015-08-29 04:04:00,
2015-08-29 00:13:00,67.0,58.0,-100.00,SSE,160,2.0,6.0,73,-99.99,,,-99.99,,2015-08-29 04:13:00,
2015-08-29 00:23:00,67.0,58.0,-100.00,South,170,2.0,5.0,74,-99.99,,,-99.99,,2015-08-29 04:23:00,
2015-08-29 00:33:00,67.0,59.0,-100.00,SSW,205,1.0,5.0,75,-99.99,,,-99.99,,2015-08-29 04:33:00,
2015-08-29 00:44:00,67.0,58.0,-100.00,SSE,155,1.0,4.0,73,-99.99,,,-99.99,,2015-08-29 04:44:00,
2015-08-29 00:53:00,67.0,58.0,-100.00,South,185,1.0,4.0,73,-99.99,,,-99.99,,2015-08-29 04:53:00,
2015-08-29 01:04:00,67.0,58.0,-100.00,SSE,150,1.0,3.0,72,-99.99,,,-99.99,,2015-08-29 05:04:00,
2015-08-29 01:13:00,67.0,58.0,-100.00,SE,140,2.0,6.0,73,-99.99,,,-99.99,,2015-08-29 05:13:00,
2015-08-29 01:23:00,67.0,58.0,-100.00,SSE,160,2.0,6.0,73,-99.99,,,-99.99,,2015-08-29 05:23:00,
2015-08-29 01:33:00,67.0,58.0,-100.00,SSE,155,2.0,6.0,73,-99.99,,,-99.99,,2015-08-29 05:33:00,
2015-08-29 01:44:00,67.0,58.0,-100.00,SSE,160,2.0,4.0,72,-99.99,,,-99.99,,2015-08-29 05:44:00,
2015-08-29 01:53:00,67.0,58.0,-100.00,South,175,2.0,7.0,73,-99.99,,,-99.99,,2015-08-29 05:53:00,
2015-08-29 02:04:00,67.0,58.0,-100.00,SSE,160,2.0,5.0,72,-99.99,,,-99.99,,2015-08-29 06:04:00,
2015-08-29 02:13:00,67.0,58.0,-100.00,South,170,2.0,6.0,72,-99.99,,,-99.99,,2015-08-29 06:13:00,
2015-08-29 02:24:00,66.0,58.0,-100.00,SSW,200,3.0,6.0,74,-99.99,,,-99.99,,2015-08-29 06:24:00,
2015-08-29 02:34:00,66.0,58.0,-100.00,South,170,3.0,6.0,75,-99.99,,,-99.99,,2015-08-29 06:34:00,
2015-08-29 02:44:00,66.0,58.0,-100.00,South,170,3.0,6.0,75,-99.99,,,-99.99,,2015-08-29 06:44:00,
2015-08-29 02:53:00,66.0,58.0,-100.00,South,170,3.0,6.0,75,-99.99,,,-99.99,,2015-08-29 06:53:00,
2015-08-29 03:03:00,66.0,58.0,-100.00,South,180,3.0,6.0,76,-99.99,,,-99.99,,2015-08-29 07:03:00,
2015-08-29 03:13:00,66.0,58.0,-100.00,South,185,4.0,8.0,76,-99.99,,,-99.99,,2015-08-29 07:13:00,
2015-08-29 03:23:00,66.0,58.0,-100.00,South,185,4.0,8.0,76,-99.99,,,-99.99,,2015-08-29 07:23:00,
2015-08-29 03:33:00,65.0,58.0,-100.00,South,180,2.0,6.0,79,-99.99,,,-99.99,,2015-08-29 07:33:00,